SCP
0 0 0 0 0 0 0 0 0 0 0 0 0 0 0 0 0 0 0 0 0 0 0 0 0 0 0 0 0 0 0 1 1 1 1 1 1 1 1 1 1 1 1
0 0 0 0 0 0 0 0 0 0 0 0 0 0 0 0 0 0 0 0 0 0 0 0 0 0 0 0 0 0 0 1 1 1 1 1 1 1 0 1 1 1 1
0 0 0 0 0 0 0 0 0 0 0 0 0 0 0 0 0 0 0 0 0 0 0 0 0 0 0 0 0 0 0 0 1 1 1 1 1 1 1 1 1 1 1
0 0 0 0 0 0 0 0 0 0 0 0 0 0 0 0 0 0 0 0 0 0 0 0 0 0 0 0 0 0 0 0 0 0 0 0 0 0 0 1 1 1 1
0 0 0 0 0 0 0 0 0 0 0 0 0 0 0 0 0 0 0 0 0 0 0 0 0 0 0 0 0 0 0 0 0 0 0 0 0 0 0 0 0 0 1
0 0 0 0 0 0 0 0 0 0 0 0 0 0 0 0 0 0 0 0 0 0 0 0 0 0 0 0 0 0 0 0 0 0 0 0 0 0 0 0 0 0 1
0 0 0 0 0 0 0 0 0 0 0 0 0 0 0 0 0 0 0 0 0 0 0 0 0 0 0 0 0 0 0 0 0 0 0 0 0 0 0 0 0 0 1
0 0 0 0 0 0 0 0 0 0 0 0 0 0 0 0 0 0 0 0 0 0 0 0 0 0 0 0 0 0 0 0 0 0 0 0 0 0 0 0 0 0 1
0 0 0 0 0 0 0 0 0 0 0 0 0 0 0 0 0 0 0 0 0 0 0 0 0 0 0 0 0 0 0 0 0 0 0 0 0 0 0 0 0 0 0
0 0 0 0 0 0 0 0 0 0 0 0 0 0 0 0 0 0 0 0 0 0 0 0 0 0 0 0 0 0 0 0 0 0 0 0 0 0 0 0 0 0 1
0 0 0 0 0 0 0 0 0 0 0 0 0 0 0 0 0 0 0 0 0 0 0 0 0 0 0 0 0 0 0 0 0 0 0 0 0 0 0 0 0 0 0
0 0 0 0 0 0 0 0 0 0 0 0 0 0 0 0 0 0 0 0 0 0 0 0 0 0 0 0 0 0 0 0 0 0 0 0 0 0 0 0 0 0 0
0 0 0 0 0 0 0 0 0 0 0 0 0 0 0 0 0 0 0 0 0 0 0 0 0 0 0 0 0 0 0 0 0 0 0 0 0 0 0 0 0 0 0
0 0 0 0 0 0 0 0 0 0 0 0 0 0 0 0 0 0 0 0 0 0 0 0 0 0 0 0 0 0 0 0 0 0 0 0 0 0 0 0 0 0 0
0 0 0 0 0 0 0 0 0 0 0 0 0 0 0 0 0 0 0 0 0 0 0 0 0 0 0 0 0 0 0 0 0 0 0 0 0 0 0 0 -0 -0 0
0 0 0 0 0 0 0 0 0 0 0 0 0 0 0 0 0 0 0 0 0 0 0 0 0 0 0 0 0 0 0 0 0 0 0 0 0 0 0 0 0 -0 -0
0 0 0 0 0 0 0 0 0 0 0 0 0 0 0 0 0 0 0 0 0 0 0 0 0 0 0 0 0 0 0 0 0 0 0 0 0 0 -0 0 0 0 0
0 0 0 0 0 0 0 0 0 0 0 0 0 0 0 0 0 0 0 0 0 0 0 0 0 0 0 0 0 0 0 0 0 0 0 0 0 0 0 -0 0 0 0
0 0 0 0 0 0 0 0 0 0 0 0 0 0 0 0 0 0 0 0 0 0 0 0 0 0 0 0 0 0 0 0 0 0 0 0 0 0 0 0 0 -0 0
0 0 0 0 0 0 0 0 0 0 0 0 0 0 0 0 0 0 0 0 0 0 0 0 0 0 0 0 0 0 0 0 0 0 0 0 0 0 0 0 0 0 0
0 0 0 0 0 0 0 0 0 0 0 0 0 0 0 0 0 0 0 0 0 0 0 0 0 0 0 0 0 0 0 0 0 0 0 0 0 0 0 0 0 0 0
0 0 0 0 0 0 0 0 0 0 0 0 0 0 0 0 0 0 0 0 0 0 0 0 0 0 0 0 0 0 0 0 0 0 0 0 0 0 0 0 0 0 0
0 0 0 0 0 0 0 0 0 0 0 0 0 0 0 0 0 0 0 0 0 0 0 0 0 0 0 0 0 0 0 0 0 0 0 0 0 0 0 0 0 0 0
0 0 0 0 0 0 0 0 0 0 0 0 0 0 0 0 0 0 0 0 0 0 0 0 0 0 0 0 0 0 0 0 0 0 0 0 0 0 0 0 0 0 0
0 0 0 0 0 0 0 0 0 0 0 0 0 0 0 0 0 0 0 0 0 0 0 0 0 -0 0 0 0 0 0 0 0 0 0 0 0 0 0 0 0 0 0
0 0 0 0 0 0 0 0 0 0 0 0 0 0 0 0 0 0 0 0 0 0 0 0 0 -0 0 0 0 0 0 0 0 0 0 0 0 0 0 0 0 0 0
Wind_Speed_500mb
25 25 30 30 30 31 33 36 35 27 18 17 20 21 21 18 14 11 9 8 7 11 20 26 28 29 29 29 26 29 37 38 40 44 46 47 46 48 48 45 43 44 43
30 29 30 32 30 32 37 40 37 29 21 16 18 18 20 13 15 15 12 9 10 15 19 25 27 23 22 23 26 27 32 36 42 43 45 46 47 50 50 49 45 44 45
32 31 31 30 32 36 39 34 29 27 23 20 17 14 11 6 13 15 11 9 11 16 19 22 23 20 20 21 22 25 29 31 36 40 43 44 45 47 51 53 49 48 46
31 32 32 31 33 37 37 34 31 27 24 17 12 6 14 11 10 9 9 13 18 23 24 25 23 22 21 21 24 26 30 25 30 38 44 46 45 46 46 51 54 52 49
28 33 36 32 34 34 36 34 32 30 26 16 3 14 13 10 6 6 12 17 21 27 29 28 25 22 22 22 23 23 24 25 29 31 37 44 47 47 52 52 55 56 53
25 31 35 36 32 32 32 32 30 27 26 10 10 13 7 5 3 6 12 18 24 28 30 31 27 22 21 21 21 21 18 17 17 24 34 36 43 53 56 55 55 52 60
24 29 35 40 34 31 31 33 32 29 23 11 8 13 11 10 5 11 12 19 24 27 30 31 27 23 20 19 18 14 13 15 14 18 22 28 32 46 42 50 57 62 54
25 24 30 36 33 28 27 29 31 30 29 26 19 10 12 18 21 21 13 18 25 26 25 23 21 21 20 20 20 17 19 18 18 20 22 27 28 30 40 46 45 45 51
24 23 28 35 33 27 26 26 28 29 31 26 24 19 10 10 37 5 15 26 24 25 25 23 21 18 19 21 22 19 20 20 21 23 24 22 22 28 32 27 35 44 41
21 22 25 30 32 28 25 23 23 24 26 28 22 21 20 19 13 22 25 25 23 21 24 19 20 17 19 20 20 19 21 20 23 22 21 22 23 21 23 31 21 27 40
23 23 24 27 28 28 25 23 25 24 27 25 23 23 23 21 19 24 38 47 35 22 18 21 17 17 19 18 15 15 20 23 21 21 25 28 29 28 22 21 28 24 32
26 27 26 28 28 26 28 24 24 23 28 27 27 28 30 30 30 29 39 45 45 41 18 17 15 19 19 18 18 20 22 21 22 25 27 27 27 26 25 27 20 22 26
25 19 23 26 27 28 28 26 24 27 31 32 30 32 34 35 34 37 43 49 49 54 37 20 22 22 23 21 21 24 23 25 25 27 26 26 27 26 29 27 21 5 9
20 19 24 26 26 28 30 32 34 34 35 37 38 38 41 40 40 42 46 49 59 58 57 43 25 21 27 27 26 26 25 24 26 27 27 26 24 19 21 23 22 24 15
23 23 26 28 29 32 34 37 40 40 40 42 44 45 49 49 49 51 52 52 50 56 65 55 46 31 27 32 31 31 29 25 29 30 28 26 26 25 20 18 19 17 15
25 26 28 31 33 34 36 38 42 42 45 47 48 51 55 57 57 55 54 57 61 61 71 66 63 50 33 33 29 31 30 31 29 30 28 28 29 29 30 26 24 23 23
28 31 33 35 37 38 37 41 45 48 51 53 54 57 62 66 69 68 65 59 64 70 79 78 72 57 50 39 32 35 35 32 30 29 29 28 27 27 27 28 25 24 26
33 35 36 37 37 39 40 43 48 51 58 63 66 70 67 68 72 76 76 75 69 76 81 85 75 67 58 46 41 36 32 33 33 34 31 31 28 27 25 27 27 26 26
35 36 37 40 43 44 48 52 57 60 62 63 62 65 62 65 68 71 72 80 88 91 85 78 82 68 64 53 44 40 35 34 31 28 34 35 34 29 28 30 30 30 27
38 41 45 49 51 56 61 62 63 62 56 54 55 56 57 60 64 62 71 75 76 71 61 67 76 73 67 59 52 45 37 35 35 30 25 25 27 31 33 32 34 32 31
44 49 51 51 52 57 60 52 44 49 44 47 45 44 49 53 55 57 58 65 68 76 62 70 82 57 64 63 57 48 40 33 36 32 29 28 29 27 29 33 32 34 38
45 46 47 50 50 45 42 39 41 43 42 42 46 54 57 60 64 62 58 52 43 56 62 68 69 57 62 62 52 44 40 35 37 30 30 27 29 29 28 29 32 32 32
44 40 38 38 42 40 36 36 41 44 44 46 54 60 62 62 64 62 61 60 59 53 47 53 78 46 50 52 36 44 36 35 37 32 31 29 28 29 24 26 20 17 26
37 36 37 32 30 30 31 36 40 43 49 57 62 61 61 61 57 58 59 58 56 54 46 38 43 43 50 53 48 38 30 31 32 35 34 36 27 28 21 21 24 21 25
29 27 29 28 27 29 35 43 52 58 55 54 55 54 54 57 56 58 57 56 56 51 49 46 55 58 33 34 36 44 38 33 34 39 29 36 30 22 18 20 20 14 9
27 25 25 23 28 35 44 50 50 56 60 65 64 61 55 52 53 52 52 51 55 58 56 50 47 34 26 45 47 41 38 48 40 38 30 22 25 19 10 19 21 17 14
Wind_Direction_500mb
345 335 337 342 340 333 332 336 336 330 316 275 273 269 276 274 249 249 265 290 306 324 326 324 318 304 288 282 282 271 263 264 265 262 258 256 255 256 257 258 260 259 258
350 345 344 341 345 347 343 341 339 335 325 308 271 269 284 273 239 238 245 250 280 301 314 321 316 314 304 288 277 279 269 262 259 264 261 258 257 257 256 256 258 260 258
2 360 356 356 353 354 350 348 346 341 325 315 306 274 262 210 206 204 221 253 285 301 311 324 322 317 305 298 292 289 285 271 260 258 261 259 258 256 255 256 255 256 260
8 11 1 358 357 358 360 355 355 357 347 330 307 220 184 170 186 207 249 282 297 299 304 313 309 309 312 302 291 290 289 285 267 260 258 259 260 258 256 255 256 255 254
7 9 7 2 358 360 2 4 2 0 2 2 85 161 166 169 208 262 291 304 306 308 311 312 307 302 303 306 299 294 291 283 274 270 269 264 265 269 269 262 258 257 255
358 2 3 2 360 359 2 7 11 12 8 30 150 139 147 185 225 304 318 325 319 315 315 312 303 302 300 305 301 294 286 293 310 278 271 270 269 265 267 268 264 260 253
341 350 357 359 358 357 2 11 11 18 26 23 221 244 257 254 286 311 339 336 325 316 310 313 300 290 290 291 301 288 283 303 319 319 296 290 299 266 271 272 267 262 257
327 334 346 355 356 356 358 3 13 15 20 24 16 286 291 269 264 290 291 339 336 326 320 311 306 288 286 289 290 285 278 281 306 327 309 319 319 298 268 270 274 260 256
319 322 337 350 354 351 350 354 5 16 20 16 19 25 343 334 331 254 295 323 316 325 324 317 303 300 298 297 290 281 275 269 291 316 336 308 323 323 287 293 266 258 255
310 310 324 343 353 348 346 351 353 360 5 13 21 15 4 344 329 321 331 339 337 322 318 312 317 300 301 304 293 280 276 280 284 296 295 312 308 325 329 285 280 273 238
314 310 307 329 341 350 344 344 358 357 350 348 350 350 350 354 340 322 322 341 348 340 317 319 316 308 298 299 292 283 281 280 282 288 290 286 293 301 335 323 257 235 213
312 320 305 317 324 330 341 330 333 347 348 342 331 329 327 325 322 317 313 325 329 346 322 320 308 317 309 298 289 284 287 275 284 293 295 284 281 288 290 329 282 235 221
314 324 313 312 313 318 320 330 320 316 317 320 323 318 317 319 312 310 308 315 315 323 329 318 305 293 298 293 289 289 286 277 279 287 293 288 284 284 286 284 289 266 282
320 320 317 322 309 309 314 307 305 308 308 307 305 305 305 308 307 306 304 305 306 308 312 318 322 298 304 299 289 281 282 275 276 284 286 282 286 287 283 280 292 281 289
331 325 321 320 315 311 308 304 303 303 299 296 296 295 294 296 297 298 298 298 295 291 298 304 306 315 307 296 296 287 275 276 278 278 278 278 273 273 272 277 277 269 287
328 323 321 318 316 313 309 305 303 302 298 299 298 297 295 296 296 293 292 293 290 285 282 289 295 297 302 301 289 289 283 273 274 270 270 273 271 270 264 265 266 268 259
329 323 321 316 315 313 310 302 302 303 302 302 300 298 298 296 291 288 285 280 284 284 277 287 287 289 287 291 289 279 282 279 273 270 269 270 264 267 265 259 261 257 263
326 327 323 321 321 320 318 311 309 309 305 304 304 301 293 292 287 286 280 278 278 273 274 278 281 283 280 281 286 288 277 273 274 266 260 260 265 263 263 255 255 256 263
325 324 322 321 321 323 317 314 310 309 309 312 313 310 310 309 301 295 294 291 290 287 277 270 275 275 278 274 275 281 279 269 276 277 263 256 257 259 260 256 256 251 248
321 320 315 311 313 313 311 309 309 307 304 310 317 319 322 320 316 301 303 296 296 295 292 280 274 266 269 269 268 274 278 271 267 272 270 257 249 257 259 257 257 251 242
316 315 313 313 313 311 311 314 313 320 320 317 321 325 327 326 326 322 313 303 301 296 293 294 273 257 261 263 264 268 270 273 265 263 262 253 265 259 267 261 258 258 251
315 314 315 315 319 321 322 327 328 336 334 327 326 326 324 322 321 323 320 313 303 296 290 291 269 261 262 260 263 266 263 261 264 265 264 251 255 260 274 264 268 251 242
321 323 325 325 323 324 328 332 331 332 331 328 325 323 322 322 322 317 317 321 319 303 292 290 269 268 277 266 236 259 250 260 261 264 259 254 249 267 277 252 254 246 249
336 336 334 341 344 339 334 331 332 331 325 322 323 325 324 324 326 324 319 318 319 317 309 296 293 292 299 291 236 241 251 256 261 259 250 256 258 268 272 248 235 265 264
349 357 351 346 345 346 346 343 335 330 335 338 336 334 329 328 327 326 325 323 322 322 316 299 290 276 256 282 224 242 241 254 257 263 259 255 264 272 266 234 235 244 288
356 354 352 359 359 353 346 342 346 345 345 346 345 341 340 333 333 332 328 325 323 325 321 316 304 288 274 282 237 243 247 238 252 260 264 274 260 250 249 237 237 233 275
Wind_Speed_850mb
25 25 30 30 30 31 33 36 35 27 18 17 20 21 21 18 14 11 9 8 7 11 20 26 28 29 29 29 26 29 37 38 40 44 46 47 46 48 48 45 43 44 43
30 29 30 32 30 32 37 40 37 29 21 16 18 18 20 13 15 15 12 9 10 15 19 25 27 23 22 23 26 27 32 36 42 43 45 46 47 50 50 49 45 44 45
32 31 31 30 32 36 39 34 29 27 23 20 17 14 11 6 13 15 11 9 11 16 19 22 23 20 20 21 22 25 29 31 36 40 43 44 45 47 51 53 49 48 46
31 32 32 31 33 37 37 34 31 27 24 17 12 6 14 11 10 9 9 13 18 23 24 25 23 22 21 21 24 26 30 25 30 38 44 46 45 46 46 51 54 52 49
28 33 36 32 34 34 36 34 32 30 26 16 3 14 13 10 6 6 12 17 21 27 29 28 25 22 22 22 23 23 24 25 29 31 37 44 47 47 52 52 55 56 53
25 31 35 36 32 32 32 32 30 27 26 10 10 13 7 5 3 6 12 18 24 28 30 31 27 22 21 21 21 21 18 17 17 24 34 36 43 53 56 55 55 52 60
24 29 35 40 34 31 31 33 32 29 23 11 8 13 11 10 5 11 12 19 24 27 30 31 27 23 20 19 18 14 13 15 14 18 22 28 32 46 42 50 57 62 54
25 24 30 36 33 28 27 29 31 30 29 26 19 10 12 18 21 21 13 18 25 26 25 23 21 21 20 20 20 17 19 18 18 20 22 27 28 30 40 46 45 45 51
24 23 28 35 33 27 26 26 28 29 31 26 24 19 10 10 37 5 15 26 24 25 25 23 21 18 19 21 22 19 20 20 21 23 24 22 22 28 32 27 35 44 41
21 22 25 30 32 28 25 23 23 24 26 28 22 21 20 19 13 22 25 25 23 21 24 19 20 17 19 20 20 19 21 20 23 22 21 22 23 21 23 31 21 27 40
23 23 24 27 28 28 25 23 25 24 27 25 23 23 23 21 19 24 38 47 35 22 18 21 17 17 19 18 15 15 20 23 21 21 25 28 29 28 22 21 28 24 32
26 27 26 28 28 26 28 24 24 23 28 27 27 28 30 30 30 29 39 45 45 41 18 17 15 19 19 18 18 20 22 21 22 25 27 27 27 26 25 27 20 22 26
25 19 23 26 27 28 28 26 24 27 31 32 30 32 34 35 34 37 43 49 49 54 37 20 22 22 23 21 21 24 23 25 25 27 26 26 27 26 29 27 21 5 9
20 19 24 26 26 28 30 32 34 34 35 37 38 38 41 40 40 42 46 49 59 58 57 43 25 21 27 27 26 26 25 24 26 27 27 26 24 19 21 23 22 24 15
23 23 26 28 29 32 34 37 40 40 40 42 44 45 49 49 49 51 52 52 50 56 65 55 46 31 27 32 31 31 29 25 29 30 28 26 26 25 20 18 19 17 15
25 26 28 31 33 34 36 38 42 42 45 47 48 51 55 57 57 55 54 57 61 61 71 66 63 50 33 33 29 31 30 31 29 30 28 28 29 29 30 26 24 23 23
28 31 33 35 37 38 37 41 45 48 51 53 54 57 62 66 69 68 65 59 64 70 79 78 72 57 50 39 32 35 35 32 30 29 29 28 27 27 27 28 25 24 26
33 35 36 37 37 39 40 43 48 51 58 63 66 70 67 68 72 76 76 75 69 76 81 85 75 67 58 46 41 36 32 33 33 34 31 31 28 27 25 27 27 26 26
35 36 37 40 43 44 48 52 57 60 62 63 62 65 62 65 68 71 72 80 88 91 85 78 82 68 64 53 44 40 35 34 31 28 34 35 34 29 28 30 30 30 27
38 41 45 49 51 56 61 62 63 62 56 54 55 56 57 60 64 62 71 75 76 71 61 67 76 73 67 59 52 45 37 35 35 30 25 25 27 31 33 32 34 32 31
44 49 51 51 52 57 60 52 44 49 44 47 45 44 49 53 55 57 58 65 68 76 62 70 82 57 64 63 57 48 40 33 36 32 29 28 29 27 29 33 32 34 38
45 46 47 50 50 45 42 39 41 43 42 42 46 54 57 60 64 62 58 52 43 56 62 68 69 57 62 62 52 44 40 35 37 30 30 27 29 29 28 29 32 32 32
44 40 38 38 42 40 36 36 41 44 44 46 54 60 62 62 64 62 61 60 59 53 47 53 78 46 50 52 36 44 36 35 37 32 31 29 28 29 24 26 20 17 26
37 36 37 32 30 30 31 36 40 43 49 57 62 61 61 61 57 58 59 58 56 54 46 38 43 43 50 53 48 38 30 31 32 35 34 36 27 28 21 21 24 21 25
29 27 29 28 27 29 35 43 52 58 55 54 55 54 54 57 56 58 57 56 56 51 49 46 55 58 33 34 36 44 38 33 34 39 29 36 30 22 18 20 20 14 9
27 25 25 23 28 35 44 50 50 56 60 65 64 61 55 52 53 52 52 51 55 58 56 50 47 34 26 45 47 41 38 48 40 38 30 22 25 19 10 19 21 17 14
Wind_Direction_850mb
345 335 337 342 340 333 332 336 336 330 316 275 273 269 276 274 249 249 265 290 306 324 326 324 318 304 288 282 282 271 263 264 265 262 258 256 255 256 257 258 260 259 258
350 345 344 341 345 347 343 341 339 335 325 308 271 269 284 273 239 238 245 250 280 301 314 321 316 314 304 288 277 279 269 262 259 264 261 258 257 257 256 256 258 260 258
2 360 356 356 353 354 350 348 346 341 325 315 306 274 262 210 206 204 221 253 285 301 311 324 322 317 305 298 292 289 285 271 260 258 261 259 258 256 255 256 255 256 260
8 11 1 358 357 358 360 355 355 357 347 330 307 220 184 170 186 207 249 282 297 299 304 313 309 309 312 302 291 290 289 285 267 260 258 259 260 258 256 255 256 255 254
7 9 7 2 358 360 2 4 2 0 2 2 85 161 166 169 208 262 291 304 306 308 311 312 307 302 303 306 299 294 291 283 274 270 269 264 265 269 269 262 258 257 255
358 2 3 2 360 359 2 7 11 12 8 30 150 139 147 185 225 304 318 325 319 315 315 312 303 302 300 305 301 294 286 293 310 278 271 270 269 265 267 268 264 260 253
341 350 357 359 358 357 2 11 11 18 26 23 221 244 257 254 286 311 339 336 325 316 310 313 300 290 290 291 301 288 283 303 319 319 296 290 299 266 271 272 267 262 257
327 334 346 355 356 356 358 3 13 15 20 24 16 286 291 269 264 290 291 339 336 326 320 311 306 288 286 289 290 285 278 281 306 327 309 319 319 298 268 270 274 260 256
319 322 337 350 354 351 350 354 5 16 20 16 19 25 343 334 331 254 295 323 316 325 324 317 303 300 298 297 290 281 275 269 291 316 336 308 323 323 287 293 266 258 255
310 310 324 343 353 348 346 351 353 360 5 13 21 15 4 344 329 321 331 339 337 322 318 312 317 300 301 304 293 280 276 280 284 296 295 312 308 325 329 285 280 273 238
314 310 307 329 341 350 344 344 358 357 350 348 350 350 350 354 340 322 322 341 348 340 317 319 316 308 298 299 292 283 281 280 282 288 290 286 293 301 335 323 257 235 213
312 320 305 317 324 330 341 330 333 347 348 342 331 329 327 325 322 317 313 325 329 346 322 320 308 317 309 298 289 284 287 275 284 293 295 284 281 288 290 329 282 235 221
314 324 313 312 313 318 320 330 320 316 317 320 323 318 317 319 312 310 308 315 315 323 329 318 305 293 298 293 289 289 286 277 279 287 293 288 284 284 286 284 289 266 282
320 320 317 322 309 309 314 307 305 308 308 307 305 305 305 308 307 306 304 305 306 308 312 318 322 298 304 299 289 281 282 275 276 284 286 282 286 287 283 280 292 281 289
331 325 321 320 315 311 308 304 303 303 299 296 296 295 294 296 297 298 298 298 295 291 298 304 306 315 307 296 296 287 275 276 278 278 278 278 273 273 272 277 277 269 287
328 323 321 318 316 313 309 305 303 302 298 299 298 297 295 296 296 293 292 293 290 285 282 289 295 297 302 301 289 289 283 273 274 270 270 273 271 270 264 265 266 268 259
329 323 321 316 315 313 310 302 302 303 302 302 300 298 298 296 291 288 285 280 284 284 277 287 287 289 287 291 289 279 282 279 273 270 269 270 264 267 265 259 261 257 263
326 327 323 321 321 320 318 311 309 309 305 304 304 301 293 292 287 286 280 278 278 273 274 278 281 283 280 281 286 288 277 273 274 266 260 260 265 263 263 255 255 256 263
325 324 322 321 321 323 317 314 310 309 309 312 313 310 310 309 301 295 294 291 290 287 277 270 275 275 278 274 275 281 279 269 276 277 263 256 257 259 260 256 256 251 248
321 320 315 311 313 313 311 309 309 307 304 310 317 319 322 320 316 301 303 296 296 295 292 280 274 266 269 269 268 274 278 271 267 272 270 257 249 257 259 257 257 251 242
316 315 313 313 313 311 311 314 313 320 320 317 321 325 327 326 326 322 313 303 301 296 293 294 273 257 261 263 264 268 270 273 265 263 262 253 265 259 267 261 258 258 251
315 314 315 315 319 321 322 327 328 336 334 327 326 326 324 322 321 323 320 313 303 296 290 291 269 261 262 260 263 266 263 261 264 265 264 251 255 260 274 264 268 251 242
321 323 325 325 323 324 328 332 331 332 331 328 325 323 322 322 322 317 317 321 319 303 292 290 269 268 277 266 236 259 250 260 261 264 259 254 249 267 277 252 254 246 249
336 336 334 341 344 339 334 331 332 331 325 322 323 325 324 324 326 324 319 318 319 317 309 296 293 292 299 291 236 241 251 256 261 259 250 256 258 268 272 248 235 265 264
349 357 351 346 345 346 346 343 335 330 335 338 336 334 329 328 327 326 325 323 322 322 316 299 290 276 256 282 224 242 241 254 257 263 259 255 264 272 266 234 235 244 288
356 354 352 359 359 353 346 342 346 345 345 346 345 341 340 333 333 332 328 325 323 325 321 316 304 288 274 282 237 243 247 238 252 260 264 274 260 250 249 237 237 233 275